Tracking 19796 objects as of 19-Jul-2019
HD Live streaming from Space Station
objects crossing your sky now

SL-19 R/B

Track SL-19 R/B now!
10-day predictions


NORAD ID: 39252
Int'l Code: 2013-048D
Perigee: 1,178.9 km
Apogee: 1,519.1 km
Inclination: 82.5 °
Period: 112.5 minutes
Semi major axis: 7719 km
RCS: Unknown
Launch date: September 11, 2013
Source: Commonwealth of Independent States (former USSR) (CIS)
Launch site: PLESETSK MISSILE AND SPACE COMPLEX (PKMTR)

Note: This is a ROCKET BODY
aabbcc
Your satellite tracking list
Your tracking list is empty




NASA's NSSDC Master Catalog

Two Line Element Set (TLE):
1 39252U 13048D   19199.89668789 +.00000006 +00000-0 -13631-4 0  9992
2 39252 082.4839 022.8178 0220307 319.9893 038.5152 12.79908253273238
Source of the keplerian elements: AFSPC